Theta_e
320 317 316 320 320 313 315 316 316 317 318 319 319 338 336 336 340 342 336 335 334 338 340 339 336 336 333 332 331 331 331 331 332 330 329 328 327 328 329 327 324 321 321 325 326 324 322 328 332
319 317 320 313 320 318 317 316 319 318 319 322 326 344 345 344 343 342 343 339 333 339 341 339 336 336 334 332 332 332 331 332 332 331 329 330 330 330 329 326 324 321 323 325 326 324 323 326 329
318 322 319 316 314 317 318 318 319 319 320 322 326 337 345 343 343 342 343 341 335 339 341 340 337 336 335 333 333 333 332 332 332 332 330 331 330 331 329 326 324 322 323 327 326 325 327 331 333
320 319 318 320 318 316 318 319 320 321 321 326 339 345 342 343 345 344 343 339 336 339 340 340 338 336 336 335 334 334 332 332 333 333 331 330 330 330 328 327 325 323 324 327 327 327 326 329 330
319 313 320 315 318 317 318 318 320 321 322 325 336 345 348 345 344 343 342 339 337 341 340 340 340 338 336 335 336 335 333 332 333 333 331 331 329 328 328 327 325 323 323 325 327 328 329 329 327
319 313 316 320 320 318 317 317 318 320 322 328 342 345 347 344 343 343 341 339 336 337 340 340 341 340 337 336 336 336 334 333 333 333 331 330 328 328 328 328 326 323 322 323 324 326 327 326 322
319 317 317 317 319 320 320 320 321 322 322 328 340 347 346 342 343 342 340 337 337 338 339 341 342 341 340 337 337 337 335 333 333 334 331 330 329 328 328 327 326 323 322 321 321 321 320 320 320
317 317 322 320 323 322 321 322 320 320 321 327 342 349 348 342 342 341 340 339 337 337 339 341 341 342 341 339 338 338 337 334 333 334 331 330 329 328 327 327 326 322 321 320 320 320 320 320 320
319 320 323 323 323 323 322 322 323 320 323 326 333 343 344 342 341 342 343 343 342 340 339 342 345 343 342 340 339 339 338 335 334 334 331 331 330 328 327 326 325 322 321 320 321 320 321 321 322
320 322 324 323 322 322 322 321 322 320 321 339 346 344 344 342 343 343 343 342 342 342 342 341 347 348 344 341 340 340 338 336 335 335 331 331 329 327 326 326 324 322 321 320 320 321 322 322 325
320 323 322 321 322 322 322 321 320 319 319 338 347 346 344 342 342 343 343 342 341 340 341 342 344 347 346 342 342 340 339 337 336 335 331 330 329 327 327 326 324 322 321 321 321 322 322 323 332
321 322 322 322 322 321 321 321 321 321 321 331 344 344 344 344 343 342 343 342 341 340 340 340 342 345 343 342 342 341 339 337 337 335 331 330 329 326 326 325 327 322 321 321 322 324 324 331 335
321 321 322 321 321 321 321 321 322 321 318 322 343 343 345 345 344 343 343 343 341 340 339 338 339 341 342 342 342 341 340 338 337 334 331 330 329 328 330 329 329 329 324 322 324 328 333 335 336
321 322 322 322 321 321 322 322 320 322 320 321 340 344 343 344 343 343 342 343 342 341 339 337 336 338 340 341 341 341 340 338 337 333 330 330 332 335 334 333 333 334 332 322 324 335 337 337 338
319 322 322 322 322 322 322 322 321 321 320 322 329 346 344 343 342 342 343 343 343 342 342 339 335 335 336 338 338 339 339 338 337 332 330 331 332 337 336 335 334 336 332 331 333 335 337 337 338
319 320 324 323 322 322 320 325 324 322 321 320 320 333 346 345 343 342 342 343 344 342 342 341 337 334 335 337 336 338 338 337 336 332 331 332 332 338 339 337 336 337 334 334 335 335 336 337 339
317 322 322 323 321 322 321 324 323 321 321 321 320 317 338 343 344 344 342 342 344 344 342 342 340 338 337 336 338 337 337 337 336 332 332 334 334 336 341 339 337 337 336 334 335 335 337 339 338
321 320 321 322 321 321 322 322 322 322 321 321 320 318 316 330 333 343 343 343 342 345 343 342 342 341 340 340 340 338 338 336 335 334 334 336 338 337 339 341 338 336 337 337 337 337 337 337 336
319 319 320 319 319 320 322 322 322 321 321 322 320 320 318 316 320 331 339 341 344 344 344 343 343 343 342 340 343 341 340 340 339 339 339 339 340 340 338 342 339 336 337 336 336 336 335 336 336
320 320 320 319 319 321 321 322 322 322 321 323 322 319 320 320 317 317 323 337 344 345 345 344 343 344 343 342 343 344 342 341 342 341 341 341 342 342 338 342 339 337 337 337 335 335 334 337 338
324 319 320 320 320 321 321 321 321 321 322 321 323 322 320 320 319 319 318 333 343 345 345 345 345 345 344 344 343 344 343 342 343 343 343 343 344 343 341 341 340 339 338 337 335 334 335 337 338
321 321 319 319 321 324 321 325 322 322 321 322 321 322 322 319 320 321 320 328 341 344 345 345 345 346 346 345 343 342 343 342 343 343 342 343 344 344 343 340 341 339 338 337 336 334 334 337 337
317 323 324 325 322 321 322 324 322 322 322 322 322 322 322 319 319 321 320 320 337 342 344 344 344 345 346 346 344 342 342 343 342 342 342 342 343 343 343 342 341 340 339 337 336 334 335 338 338
315 321 324 324 326 328 322 324 323 322 322 322 322 322 320 322 319 319 320 321 325 340 342 343 343 343 345 345 345 343 342 342 342 341 340 340 340 341 340 339 338 340 340 338 336 334 334 338 338
320 324 329 331 331 332 324 323 323 322 321 322 322 322 321 320 319 319 319 319 320 334 340 342 343 342 343 344 344 343 342 341 341 340 340 338 338 340 340 338 337 337 338 339 336 334 334 339 338
323 323 328 333 333 332 324 326 323 320 319 321 319 319 319 319 320 318 317 318 319 323 339 342 342 342 343 343 343 343 342 341 341 339 339 338 338 339 339 338 339 337 337 338 335 335 338 339 337
319 326 322 325 326 329 326 323 320 319 319 320 318 319 319 317 318 321 318 317 318 324 338 342 342 343 343 343 343 343 342 341 341 339 339 338 338 338 339 338 339 338 338 337 336 338 339 338 337
319 318 324 324 328 331 330 325 325 321 320 320 320 319 317 318 316 316 317 318 319 323 334 342 343 343 343 343 343 342 342 341 340 339 338 338 337 337 338 338 338 338 337 337 336 339 339 337 335
318 322 321 322 324 328 333 327 321 321 320 321 321 321 320 320 320 316 317 316 318 320 326 340 343 343 343 343 343 342 342 341 340 339 338 338 337 337 337 338 338 337 337 336 338 339 337 333 328
318 319 320 324 323 327 328 325 320 321 320 320 320 321 321 321 321 321 318 315 316 317 320 326 339 343 343 343 343 343 342 341 339 339 338 338 337 337 337 337 336 335 336 337 338 337 332 328 322
Wind_Speed
11 8 4 3 3 4 5 7 5 9 7 2 2 6 18 8 11 5 9 29 34 51 45 42 39 37 34 32 30 30 29 29 27 26 25 24 23 22 21 20 19 17 18 18 17 18 19 19 19
10 7 2 2 4 2 6 5 16 18 11 3 3 6 5 2 4 8 12 25 46 47 45 42 40 38 35 33 31 30 29 28 27 25 24 23 22 21 20 19 18 17 17 17 17 17 18 17 15
8 5 3 4 4 7 6 6 7 7 11 9 6 4 5 8 8 12 14 35 49 46 44 41 39 37 35 33 32 30 29 28 27 25 24 22 21 20 20 18 17 16 16 15 15 15 15 14 13
5 3 3 2 12 9 7 10 17 12 13 6 6 8 4 3 8 15 35 43 49 45 43 40 38 37 35 33 31 30 29 27 26 25 23 22 21 19 18 18 17 15 14 15 14 13 12 11 9
3 3 2 4 12 10 8 13 10 14 12 8 4 4 4 5 20 34 39 44 48 43 41 39 37 36 35 33 31 30 29 27 26 24 23 22 21 19 18 17 17 15 14 13 13 12 10 9 8
0 2 2 9 18 12 10 8 10 14 15 5 6 7 3 19 32 36 39 42 45 45 40 39 36 35 34 33 31 29 28 27 25 23 22 21 20 19 18 16 16 15 14 13 11 9 8 7 7
4 3 5 6 11 8 17 4 7 22 14 6 15 6 5 10 26 34 37 42 42 41 40 39 36 34 33 33 31 29 28 27 25 23 22 20 20 19 17 16 15 14 14 13 11 9 7 6 6
4 3 5 6 11 16 6 4 6 8 10 5 12 8 8 11 28 30 35 39 38 36 36 36 37 35 35 33 31 29 28 26 25 23 21 20 19 19 17 16 14 14 13 12 10 8 7 6 6
3 4 13 18 13 18 8 8 12 8 4 2 7 6 15 32 33 32 27 28 34 34 35 33 31 36 36 35 32 30 28 27 25 23 22 21 20 19 18 16 15 13 12 11 10 8 7 5 5
7 9 20 6 17 18 16 7 17 9 14 5 8 15 31 35 33 28 24 23 26 30 31 35 33 31 33 36 34 32 30 29 28 26 24 22 21 19 17 16 14 13 12 11 9 8 7 6 5
6 22 14 16 19 14 20 19 4 7 9 8 17 22 21 27 26 26 25 27 27 37 34 35 37 35 34 33 35 34 33 32 30 28 26 23 21 19 18 17 16 15 13 11 11 9 8 8 5
8 16 17 21 18 14 19 16 16 7 19 5 25 28 25 24 23 24 27 28 30 33 37 38 38 38 37 36 37 37 36 35 33 30 27 25 23 21 20 18 16 14 13 12 11 10 8 8 7
13 19 14 16 18 22 18 22 21 18 12 0 18 23 24 23 21 26 28 29 31 32 35 40 38 39 40 39 38 38 37 37 35 32 29 27 24 23 21 19 16 15 13 12 12 11 11 11 8
6 11 15 17 22 21 20 23 7 23 11 7 17 21 21 20 19 20 23 28 34 34 38 40 40 38 39 39 39 40 39 37 36 33 32 29 26 24 23 21 18 15 15 14 15 14 13 11 10
15 20 16 19 17 19 12 20 20 19 11 8 10 18 22 23 27 25 35 33 39 40 42 41 42 40 39 38 40 41 41 40 38 36 34 32 30 28 25 24 22 17 15 16 15 17 14 13 13
10 11 18 27 20 24 9 25 24 15 14 12 10 12 19 22 25 33 37 38 39 37 44 44 44 45 43 40 39 40 41 41 40 37 36 34 34 31 30 28 25 21 19 18 18 18 17 17 15
10 16 25 26 23 16 14 18 21 12 14 14 9 10 16 17 21 32 37 39 40 43 42 42 44 48 46 44 41 39 39 40 40 39 38 36 36 36 31 34 28 23 23 21 21 23 19 19 18
16 25 20 31 22 20 20 19 17 12 14 13 10 9 11 17 18 29 34 38 41 43 44 45 45 46 44 39 39 37 36 39 39 41 41 37 37 37 36 33 31 27 26 21 22 23 20 16 16
24 22 31 24 10 9 21 17 17 15 15 15 11 11 9 12 16 29 31 38 39 40 41 41 40 42 40 36 38 34 36 37 38 41 42 39 38 37 41 32 36 32 29 27 23 22 19 16 15
29 26 26 20 15 18 13 18 18 19 13 19 16 12 14 14 10 12 28 33 39 40 43 42 43 43 48 42 39 34 32 32 34 35 40 41 40 39 40 34 37 35 32 29 26 24 20 16 15
25 31 30 26 13 18 16 20 12 18 21 14 20 17 17 17 15 14 14 29 41 41 43 45 45 46 48 44 35 30 28 24 30 36 40 45 45 44 44 40 38 35 33 33 31 27 24 19 18
13 30 31 26 14 18 18 13 25 18 17 23 20 20 20 13 15 17 16 18 38 45 44 47 48 47 46 43 39 40 39 30 37 33 34 42 44 45 46 45 41 39 36 35 34 30 28 25 19
9 17 25 22 20 21 15 13 14 22 20 25 24 25 21 16 18 19 17 21 39 46 44 45 48 46 46 46 46 45 39 40 32 30 31 38 44 45 46 47 45 42 40 39 35 33 30 28 24
18 22 19 13 17 21 27 17 15 17 32 28 23 21 17 21 17 18 21 29 31 42 43 44 46 46 46 47 46 46 46 37 33 33 36 38 39 46 45 44 47 49 43 41 39 36 33 31 29
19 13 5 10 8 11 23 22 27 25 22 24 23 22 20 17 16 18 17 15 18 35 41 40 42 43 46 47 47 46 46 42 43 39 39 31 33 39 47 46 46 44 50 44 40 36 34 33 30
17 20 4 6 9 8 19 21 29 32 8 23 14 10 15 17 19 17 17 15 17 25 37 41 43 44 46 47 48 47 47 42 41 40 38 40 39 40 39 47 45 44 47 46 40 37 36 34 31
2 14 14 4 4 5 6 5 34 24 22 25 13 17 14 11 12 16 13 12 17 26 38 44 45 47 47 50 50 47 45 41 40 41 42 42 41 40 40 45 47 46 46 44 41 39 38 34 31
3 7 6 9 6 5 4 18 20 20 29 16 8 8 7 7 8 9 8 11 20 31 41 46 50 51 51 51 50 49 48 46 43 39 41 42 44 43 43 43 45 46 44 41 43 40 37 34 31
5 5 5 1 5 5 2 7 23 9 6 14 18 15 12 13 12 9 9 9 19 23 30 38 44 47 47 49 48 43 41 41 40 41 45 44 41 43 44 45 46 44 42 40 42 41 36 34 33
4 3 9 3 6 4 6 7 6 2 2 5 5 12 17 20 22 18 10 10 9 18 26 33 37 41 45 47 46 44 42 39 41 42 44 44 46 46 45 45 43 39 43 44 43 40 39 41 38
Wind_Direction
217 204 174 98 50 67 253 255 287 291 308 270 156 138 165 183 165 205 146 161 165 161 162 162 161 158 155 153 149 145 141 138 133 129 127 126 124 122 121 120 119 119 120 121 121 122 120 118 113
199 176 134 87 116 213 265 216 248 254 241 282 159 117 79 115 88 123 125 160 162 163 163 164 163 161 158 156 153 150 147 143 138 134 132 130 128 127 126 124 123 121 122 124 126 126 126 123 118
175 184 100 157 180 207 219 226 220 292 297 203 140 77 101 146 115 139 164 156 163 165 165 166 164 163 161 159 157 155 152 149 145 141 138 135 133 132 130 128 125 125 125 128 128 129 132 126 120
195 36 6 181 242 245 224 281 289 307 316 267 119 93 61 217 142 157 154 160 161 165 167 166 166 166 165 163 160 159 157 155 151 146 142 141 139 138 135 133 131 130 132 133 133 134 136 135 126
233 71 219 233 253 260 253 259 290 282 276 244 133 134 84 15 142 150 157 159 163 164 168 167 169 169 169 166 164 163 162 160 157 152 148 148 145 145 143 140 137 138 137 138 137 142 143 141 132
253 114 163 240 256 270 272 259 282 279 256 176 97 112 112 138 136 150 157 160 168 164 168 168 173 173 173 171 168 167 166 164 162 158 154 154 150 149 148 146 144 143 142 143 142 148 146 142 133
170 116 230 240 268 286 262 207 255 273 250 207 139 101 128 157 147 152 153 166 167 167 167 168 174 177 177 176 172 172 170 168 166 164 162 159 156 153 153 152 151 148 150 149 151 153 145 138 124
162 142 244 226 249 269 263 239 263 324 222 93 140 153 178 167 148 147 157 163 164 169 168 168 174 179 180 179 177 175 174 173 171 170 168 165 162 159 159 158 158 156 156 155 154 151 143 135 126
150 199 235 230 228 242 292 320 300 292 256 125 173 161 148 144 143 140 143 151 161 168 171 169 170 179 182 180 179 177 177 177 176 175 173 173 169 167 166 165 165 163 162 161 159 157 148 144 139
192 216 233 227 237 266 289 300 299 330 288 36 72 106 127 138 144 147 160 159 160 165 170 173 172 173 178 180 180 180 179 179 180 180 178 180 177 173 170 171 171 171 171 170 167 165 161 155 136
224 238 240 251 253 266 278 277 266 289 287 183 146 143 147 148 154 156 168 173 172 172 171 176 176 177 176 177 181 183 182 183 184 184 183 182 182 176 178 177 179 179 180 181 179 178 174 171 153
252 253 235 256 263 262 265 279 286 271 267 237 153 160 161 164 166 166 168 171 172 174 178 180 181 179 182 181 183 186 186 187 187 188 186 184 184 182 185 187 188 187 189 189 189 188 185 174 173
241 253 257 253 256 255 268 265 261 273 261 136 165 159 169 175 180 174 169 165 168 173 182 187 187 185 186 188 188 189 190 191 190 189 189 189 188 188 188 189 195 201 198 198 196 191 183 189 195
260 236 252 260 249 252 251 260 241 262 263 241 179 173 174 173 177 174 164 168 173 178 185 191 192 191 191 194 194 193 194 194 195 193 193 193 196 193 194 195 197 203 209 204 199 195 194 200 215
246 260 270 254 250 252 241 266 246 254 255 248 167 180 176 179 174 178 182 177 180 185 185 191 193 195 196 197 197 197 197 196 198 199 198 198 200 201 201 201 201 201 196 193 199 208 217 225 231
232 227 242 248 245 252 161 257 252 248 247 231 184 179 185 185 182 187 187 186 183 181 185 190 190 195 197 200 199 199 201 201 202 204 202 202 202 205 208 210 208 204 206 204 211 219 227 232 225
247 234 221 245 230 237 189 243 257 238 235 235 218 176 188 195 195 191 191 189 185 187 187 185 188 193 193 199 200 201 204 205 206 209 210 205 206 206 210 212 210 208 212 218 225 225 228 206 206
213 223 227 228 222 227 233 235 255 249 228 228 222 222 180 196 206 201 193 193 190 190 189 189 188 190 190 190 197 199 204 209 209 211 214 212 209 210 210 214 213 208 212 210 209 201 198 200 208
232 230 228 242 204 211 236 238 236 254 232 233 221 224 229 191 210 209 200 190 194 191 188 188 187 186 183 186 188 193 199 204 207 212 214 213 210 210 212 215 210 208 208 212 204 204 212 214 221
237 235 237 251 226 212 223 228 224 239 238 228 218 222 221 225 215 193 208 189 191 191 191 190 189 184 189 191 193 195 199 203 208 210 214 214 213 212 211 214 209 211 210 215 211 206 208 210 207
245 228 233 228 211 230 226 248 238 233 236 242 233 222 221 214 217 223 191 192 190 192 191 191 189 189 191 194 188 191 192 203 201 207 213 213 214 213 212 212 210 210 212 212 212 208 210 197 197
276 227 239 240 228 229 199 237 227 229 230 227 235 228 228 218 223 222 208 188 190 195 194 190 190 191 192 189 187 186 189 194 205 202 204 205 208 209 212 216 215 215 216 215 215 214 214 213 189
249 281 233 240 223 244 228 230 226 215 225 226 224 233 229 220 219 224 217 192 193 196 193 192 191 191 190 187 190 190 195 204 199 204 205 211 212 215 213 217 218 216 218 219 218 216 214 215 205
232 265 281 270 229 224 222 228 230 208 217 224 225 224 224 225 216 214 214 211 192 198 196 192 191 194 191 190 192 194 199 198 195 195 203 207 211 217 223 223 224 219 216 219 218 218 217 216 218
213 208 213 209 206 221 215 215 238 211 223 217 216 224 224 209 211 215 214 214 192 195 198 193 191 194 194 193 193 196 200 197 197 196 196 194 203 210 219 221 220 216 217 219 216 217 217 214 212
217 209 204 212 195 192 218 210 240 227 206 228 227 212 210 203 210 203 207 203 205 192 195 189 192 195 194 194 196 198 201 198 200 199 198 199 203 210 211 218 219 219 216 215 214 215 214 212 214
214 219 200 337 332 257 184 222 249 241 234 240 230 224 220 215 217 225 215 206 202 189 192 192 192 196 193 195 197 199 201 199 199 200 200 202 204 208 211 215 213 217 217 216 211 213 211 208 207
200 144 177 211 203 228 253 205 232 194 223 226 234 249 265 272 231 239 232 213 208 199 196 197 193 193 196 198 197 199 199 199 199 197 199 202 204 205 206 209 209 212 214 213 211 209 207 204 197
199 221 190 221 211 225 210 240 236 231 193 224 247 249 252 258 250 235 233 218 215 204 197 201 196 196 199 197 198 199 200 200 197 198 202 204 201 202 204 203 204 205 208 210 205 204 202 194 185
192 229 205 165 187 221 229 266 306 157 225 208 244 257 245 241 251 246 232 230 214 216 198 195 198 202 201 198 196 195 197 194 193 197 199 202 204 203 203 199 198 196 201 205 203 200 196 190 184